カタログに戻る

OPS 0856 DEB

運用中PO
NORAD 24676·DEBRIS·🇺🇸 United States

打ち上げ Aug 19, 1966 から Vandenberg Space Force Base

Loading…

次のパス (今後24時間)

TLE

最新Source: Space-Track

元期: Sep 13, 2026, 19:39 UTC

1 24676U 66077Q   26256.81942023 -.00001099  00000-0 -31521-1 0  9995
2 24676  88.4159  41.2072 2072022 163.4590 204.5857  9.03296284563470

AllMySatでOPS 0856 DEBをリアルタイム追跡

Download on the App Store